Ouarzazate, Morocco

7:08 AM WEST on September 29, 2016 (GMT +0100)
Ouarzazate

Weather History for GMMZ - January, 2013

Change the Weather History Date:

Wednesday, January 9, 2013

  Actual Average Record
Temperature  
Mean Temperature 48 °F -  
Max Temperature 66 °F - - ()
Min Temperature 30 °F - - ()
Degree Days  
Heating Degree Days 17    
Moisture  
Dew Point 4 °F    
Average Humidity 16    
Maximum Humidity 28    
Minimum Humidity 4    
Precipitation  
Precipitation 0.00 in - - ()
Sea Level Pressure  
Sea Level Pressure 30.36 in    
Wind  
Wind Speed 1 mph ()    
Max Wind Speed 5 mph    
Max Gust Speed -    
Visibility 12.0 miles    
Events      
T = Trace of Precipitation, MM = Missing Value Source: Averaged Metar Reports

Daily Weather History Graph

Daily Weather History Graph

Search for Another Location

Airport or City:

Trip Planner

Search our weather history database for the weather conditions in past years. The results will help you decide how hot, cold, wet, or windy it might be!

Date:

Astronomy

Jan. 09, 2013 Rise Set
Actual Time 7:26 AM WET 5:43 PM WET
Civil Twilight 7:00 AM WET 6:09 PM WET
Nautical Twilight 6:30 AM WET 6:39 PM WET
Astronomical Twilight 6:01 AM WET 7:08 PM WET
Moon 4:51 AM WET (1/9) 3:30 PM WET (1/9)
Length of Visible Light 11h 09m
Length of Day
10h 16m
Waning Crescent, 8% of the Moon is Illuminated
Jan 9
Waning Crescent
Jan 11
New
Jan 18
First Quarter
Jan 27
Full
Feb 3
Last Quarter

Hourly Weather History & Observations

Time (WET) Temp. Windchill Dew Point Humidity Pressure Visibility Wind Dir Wind Speed Gust Speed Precip Events Conditions
12:00 AM 38 °F - 5 °F 13%  in 12 mi NNW 1.2 mph - -  
12:00 AM 37.4 °F - 6.8 °F 28% 30.42 in - Variable 1.2 mph - N/A   Clear
1:00 AM 37.4 °F - -0.4 °F 20% 30.42 in - Variable 2.3 mph - N/A   Clear
2:00 AM 33.8 °F - -0.4 °F 23% 30.42 in - Variable 1.2 mph - N/A   Clear
3:00 AM 35 °F - -0 °F 11%  in 12 mi WSW 1.2 mph - -  
3:00 AM 35.6 °F - -0.4 °F 22% 30.42 in - Variable 1.2 mph - N/A   Clear
4:00 AM 33.8 °F - -0.4 °F 23% 30.39 in - Variable 1.2 mph - N/A   Clear
5:00 AM 32.0 °F - -0.4 °F 25% 30.39 in - Variable 2.3 mph - N/A   Clear
6:00 AM 34 °F - -1 °F 11%  in 12 mi SSW 1.2 mph - -  
7:00 AM 32.0 °F - 1.4 °F 27% 30.39 in - Calm Calm - N/A   Clear
8:00 AM 35.6 °F - 1.4 °F 24% 30.42 in - Calm Calm - N/A   Clear
9:00 AM 36 °F - 1 °F 11%  in 12 mi Calm Calm - -   Clear
9:00 AM 35.6 °F - 1.4 °F 24% 30.45 in - Calm Calm - N/A   Clear
10:00 AM 44.6 °F - 6.8 °F 21% 30.48 in - Calm Calm - N/A   Clear
11:00 AM 46.4 °F - 6.8 °F 20% 29.86 in - Calm Calm - N/A   Clear
12:00 PM 53 °F - 8 °F 7%  in 12 mi Calm Calm - -   Clear
12:00 PM 53.6 °F - 6.8 °F 15% 30.42 in - Calm Calm - N/A   Clear
1:00 PM 57.2 °F - 6.8 °F 13% 30.39 in - Calm Calm - N/A   Clear
2:00 PM 60.8 °F - 6.8 °F 12% 30.36 in - Calm Calm - N/A   Clear
3:00 PM 64 °F - 8 °F 4%  in 12 mi Calm Calm - -   Clear
3:00 PM 64.4 °F - 8.6 °F 11% 30.33 in - Calm Calm - N/A   Clear
4:00 PM 66.2 °F - 5.0 °F 9% 30.33 in - Calm Calm - N/A   Clear
5:00 PM 64.4 °F - 6.8 °F 10% 30.33 in - NNW 2.3 mph - N/A   Clear
6:00 PM 60.8 °F - 8.6 °F 13% 30.33 in - Variable 1.2 mph - N/A   Clear
7:00 PM 57.2 °F - 5.0 °F 12% 30.33 in - NNW 1.2 mph - N/A   Clear
8:00 PM 55.4 °F - 5.0 °F 13% 30.33 in - SSW 1.2 mph - N/A   Clear
9:00 PM 45 °F - 2 °F 7%  in 12 mi NW 3.5 mph - -   Clear
9:00 PM 44.6 °F 43.1 °F 1.4 °F 17% 30.36 in - NW 3.5 mph - N/A   Clear
10:00 PM 46.4 °F 44.3 °F 1.4 °F 16% 30.36 in - West 4.6 mph - N/A   Clear
11:00 PM 42.8 °F - 3.2 °F 19% 30.39 in - West 1.2 mph - N/A   Clear